TimeCDT,TemperatureF,Dew PointF,Humidity,Sea Level PressureIn,VisibilityMPH,Wind Direction,Wind SpeedMPH,Gust SpeedMPH,PrecipitationIn,Events,Conditions,WindDirDegrees,DateUTC
12:53 AM,59.0,53.1,81,30.11,10.0,SE,3.5,-,N/A,,Mostly Cloudy,130,2012-09-16 05:53:00
1:53 AM,57.9,53.1,84,30.09,10.0,SSE,3.5,-,N/A,,Clear,150,2012-09-16 06:53:00
2:53 AM,57.0,53.1,87,30.08,10.0,SSE,5.8,-,N/A,,Clear,160,2012-09-16 07:53:00
3:53 AM,55.9,53.1,90,30.08,10.0,SSE,5.8,-,N/A,,Clear,160,2012-09-16 08:53:00
4:53 AM,55.0,53.1,93,30.07,10.0,SSE,3.5,-,N/A,,Clear,150,2012-09-16 09:53:00
5:53 AM,52.0,50.0,93,30.07,6.0,Calm,Calm,-,N/A,,Clear,0,2012-09-16 10:53:00
6:53 AM,51.8,48.2,88,30.08,4.0,Calm,Calm,-,N/A,,Clear,0,2012-09-16 11:53:00
7:04 AM,51.8,48.2,88,30.08,2.5,Calm,Calm,-,N/A,,Clear,0,2012-09-16 12:04:00
7:11 AM,50.0,48.2,94,30.08,2.0,Calm,Calm,-,N/A,,Partly Cloudy,0,2012-09-16 12:11:00
7:25 AM,51.8,48.2,88,30.09,6.0,Calm,Calm,-,N/A,,Partly Cloudy,0,2012-09-16 12:25:00
7:40 AM,51.8,50.0,94,30.09,5.0,Calm,Calm,-,N/A,,Mostly Cloudy,0,2012-09-16 12:40:00
7:53 AM,55.0,53.1,93,30.09,2.5,Calm,Calm,-,N/A,,Mostly Cloudy,0,2012-09-16 12:53:00
8:00 AM,57.2,55.4,94,30.10,1.8,Calm,Calm,-,N/A,,Overcast,0,2012-09-16 13:00:00
8:29 AM,57.2,57.2,100,30.09,0.5,South,4.6,-,N/A,Fog,Fog,170,2012-09-16 13:29:00
8:39 AM,57.2,57.2,100,30.10,0.8,South,3.5,-,N/A,,Overcast,180,2012-09-16 13:39:00
8:53 AM,59.0,57.9,96,30.09,1.5,South,4.6,-,N/A,,Overcast,180,2012-09-16 13:53:00
9:02 AM,59.0,57.2,94,30.09,3.0,South,4.6,-,N/A,,Overcast,180,2012-09-16 14:02:00
9:31 AM,60.8,57.2,88,30.10,6.0,South,3.5,-,N/A,,Overcast,180,2012-09-16 14:31:00
9:53 AM,62.1,57.9,86,30.09,8.0,SSW,3.5,-,N/A,,Overcast,200,2012-09-16 14:53:00
10:03 AM,62.6,57.2,82,30.10,8.0,Variable,3.5,-,N/A,,Overcast,0,2012-09-16 15:03:00
10:30 AM,64.4,59.0,83,30.09,10.0,SSW,4.6,-,N/A,,Overcast,210,2012-09-16 15:30:00
10:53 AM,64.9,60.1,84,30.08,10.0,South,3.5,-,N/A,,Overcast,190,2012-09-16 15:53:00
11:07 AM,66.2,60.8,83,30.08,10.0,SSW,3.5,-,N/A,,Overcast,200,2012-09-16 16:07:00
11:53 AM,66.9,60.1,79,30.07,10.0,Calm,Calm,-,N/A,,Overcast,0,2012-09-16 16:53:00
12:05 PM,66.2,60.8,83,30.07,10.0,SSW,5.8,-,N/A,,Overcast,200,2012-09-16 17:05:00
12:53 PM,69.1,61.0,75,30.05,10.0,SSE,4.6,-,N/A,,Overcast,150,2012-09-16 17:53:00
1:53 PM,69.1,61.0,75,30.04,10.0,South,4.6,-,N/A,,Overcast,190,2012-09-16 18:53:00
2:53 PM,71.1,60.1,68,30.01,10.0,ESE,4.6,-,N/A,,Mostly Cloudy,110,2012-09-16 19:53:00
3:40 PM,73.4,60.8,65,30.01,10.0,South,4.6,-,N/A,,Mostly Cloudy,170,2012-09-16 20:40:00
3:53 PM,73.0,60.1,64,29.99,10.0,SSE,5.8,-,N/A,,Scattered Clouds,160,2012-09-16 20:53:00
4:53 PM,73.0,61.0,66,29.98,10.0,SE,5.8,-,N/A,,Mostly Cloudy,140,2012-09-16 21:53:00
5:53 PM,72.0,61.0,68,29.97,10.0,SE,5.8,-,N/A,,Mostly Cloudy,140,2012-09-16 22:53:00
6:53 PM,70.0,60.1,71,29.96,10.0,SE,5.8,-,N/A,,Partly Cloudy,130,2012-09-16 23:53:00
7:53 PM,66.0,59.0,78,29.96,10.0,SSE,3.5,-,N/A,,Clear,150,2012-09-17 00:53:00
8:53 PM,66.0,60.1,81,29.95,10.0,SSE,8.1,-,N/A,,Clear,150,2012-09-17 01:53:00
9:53 PM,63.0,59.0,87,29.95,10.0,Calm,Calm,-,N/A,,Clear,0,2012-09-17 02:53:00
10:53 PM,57.9,55.9,93,29.96,7.0,Calm,Calm,-,N/A,,Clear,0,2012-09-17 03:53:00
11:53 PM,55.0,54.0,96,29.96,4.0,Calm,Calm,-,N/A,,Clear,0,2012-09-17 04:53:00